Tracking 18945 objects as of 19-Jan-2018
HD Live streaming from Space Station
objects crossing your sky now

FENGYUN 1C DEB

Track FENGYUN 1C DEB now!
10-day predictions


NORAD ID: 38144
Int'l Code: 1999-025EQR
Perigee: 843.4 km
Apogee: 1,295.1 km
Inclination: 99.0 °
Period: 106.4 minutes
Semi major axis: 7440 km
RCS: 0.009 m2 (small)
Launch date: May 10, 1999
Source: People's Republic of China (PRC)
Launch site: Taiyaun Space Center, China (TSC)

Note: This is SATELLITE DEBRIS
aabbcc
Your satellite tracking list
Your tracking list is empty




NASA's NSSDC Master Catalog

Two Line Element Set (TLE):
1 38144U 99025EQR 18018.29422963 +.00000361 +00000-0 +44914-3 0  9995
2 38144 098.9995 053.1779 0303512 024.9875 336.5614 13.52764826457695
Source of the keplerian elements: AFSPC